RH
87 92 93 88 87 88 87 89 92 91 87 85 85 87 92 99 101 99 99 99 100 99 98 98 100 100 100 100 98 99 96 88 80 75 78 83 76 62 58 59 61 55 36 26 30 29 24 24 24 22 24 26 24 23 24 25 26 27 28 29 28 29 29 25 20 17 15 14 14 12 12 11 11 12 10 10 11 11 12 14 15 15 15 17 16 19 35
90 97 94 87 85 84 84 85 87 88 87 87 88 87 88 95 100 100 98 98 99 100 98 100 100 98 99 98 95 92 83 79 87 91 88 87 77 61 54 50 47 41 30 27 29 25 23 25 24 23 25 25 24 23 23 24 26 28 30 31 29 28 29 26 23 22 20 17 15 12 11 12 12 11 11 12 10 10 12 14 16 17 17 17 14 21 40
94 99 93 87 84 82 82 82 83 85 87 89 93 92 90 94 99 100 98 97 99 100 98 99 99 97 98 94 90 91 80 67 76 87 87 84 78 66 52 40 38 37 29 27 29 26 27 29 27 26 27 25 23 22 22 23 25 28 30 29 28 28 29 27 24 24 25 21 16 13 11 12 13 11 12 13 11 11 13 15 17 17 16 15 11 25 48
94 98 94 86 83 81 80 80 81 81 83 88 92 94 95 98 99 99 99 96 96 99 99 100 99 95 97 94 87 88 81 63 58 74 85 79 69 64 56 43 35 31 29 31 31 27 31 34 30 30 31 27 23 22 22 24 25 27 29 28 27 27 28 26 22 19 20 17 14 14 12 13 14 11 11 13 13 13 13 14 15 15 16 15 13 27 46
90 93 95 89 82 81 79 78 79 79 80 84 86 88 96 100 99 99 99 96 96 99 99 100 100 96 97 96 83 76 81 76 66 70 78 73 66 65 60 47 32 26 33 39 31 26 33 34 29 30 32 28 25 23 23 24 25 26 28 29 28 28 29 27 23 18 17 15 14 15 15 13 13 12 12 13 13 13 12 14 15 15 18 17 17 30 42
85 86 91 91 84 82 81 77 76 76 78 80 78 81 91 98 100 100 99 97 98 100 99 100 100 98 96 93 82 77 85 88 81 80 81 78 78 73 56 39 30 30 36 38 29 26 30 31 28 29 28 26 26 25 24 25 25 25 27 27 28 30 29 27 24 20 18 17 15 15 16 14 13 13 13 13 13 13 13 14 15 16 18 16 17 32 44
82 81 86 91 86 81 81 78 74 73 75 75 72 73 80 88 95 98 99 100 99 98 100 99 99 100 98 93 86 84 88 86 78 80 86 85 82 74 57 39 29 29 33 33 31 29 27 26 28 28 26 26 27 26 25 26 26 25 26 27 29 31 28 26 26 23 21 21 19 18 18 15 13 13 15 16 15 13 13 14 14 14 17 16 17 25 33
79 80 82 88 85 79 79 79 75 71 71 72 70 70 72 78 87 92 94 97 99 98 99 98 97 99 100 99 90 80 81 80 75 78 88 88 79 71 64 53 37 26 30 39 43 40 31 27 28 29 27 24 26 26 23 24 25 24 26 28 30 33 30 26 26 26 25 25 24 22 20 17 15 15 17 19 18 15 14 14 14 15 17 19 19 21 22
76 78 79 82 81 75 73 77 76 71 68 66 67 69 70 72 78 83 86 91 94 96 97 96 96 97 98 100 94 82 77 77 75 77 78 81 85 80 70 65 54 38 36 43 45 39 34 33 32 30 27 25 26 27 23 23 24 25 29 31 31 33 32 27 28 31 30 31 30 25 19 18 17 17 17 18 19 19 18 16 16 17 20 21 21 21 21
72 77 78 78 77 72 66 70 74 73 69 64 63 66 66 66 67 69 77 86 90 95 97 93 92 96 98 98 96 90 85 78 75 74 64 62 76 79 69 66 62 48 40 44 45 39 40 43 38 30 26 26 26 25 23 25 26 26 30 33 32 34 33 28 29 32 34 36 35 28 23 22 21 19 18 17 17 19 20 19 19 20 22 24 23 21 24
67 75 78 77 76 72 64 63 68 71 70 66 63 63 63 64 64 62 68 76 81 91 97 91 88 92 95 98 97 92 88 82 79 80 72 63 67 75 76 76 70 58 49 48 47 44 45 48 45 37 30 27 27 26 23 25 28 28 29 33 34 35 32 27 27 29 32 36 36 31 28 30 30 26 24 23 20 19 21 22 22 23 24 26 26 24 25
62 71 75 77 78 72 64 61 62 66 69 68 65 64 62 62 65 64 65 69 76 89 97 94 93 94 93 95 95 91 89 85 81 83 81 72 67 66 66 69 72 70 61 51 49 50 50 50 49 44 34 26 26 26 23 25 29 29 28 32 35 34 32 28 26 26 28 30 35 36 35 41 43 35 31 31 27 22 22 22 22 24 26 26 27 26 25
50 67 72 75 77 74 67 61 58 61 65 67 65 63 61 61 64 66 66 68 77 90 94 92 93 92 90 93 93 89 88 84 81 84 83 78 76 67 57 58 64 65 58 50 50 54 52 49 49 45 36 28 27 25 24 27 30 29 28 33 35 34 32 29 27 26 23 23 29 36 41 51 52 41 35 35 32 28 30 28 24 24 25 26 27 27 25
32 53 69 72 73 74 70 63 59 58 61 63 61 59 58 60 63 66 66 65 70 83 93 94 89 86 90 96 94 88 85 84 83 83 79 76 75 71 63 58 54 49 46 44 47 52 50 47 48 47 41 38 34 26 24 26 27 27 29 33 35 35 33 31 28 25 22 20 24 33 44 54 52 42 38 35 32 33 36 34 31 28 26 26 28 27 26
24 34 55 68 71 72 71 66 61 58 58 58 56 52 52 54 59 65 66 64 63 71 87 96 93 88 89 92 92 88 84 82 81 79 78 79 77 71 65 55 43 37 39 43 51 56 49 41 44 46 43 40 35 27 24 25 26 27 29 31 35 36 33 31 29 26 22 20 22 30 41 45 41 37 38 37 37 39 39 37 36 35 32 30 28 27 26
35 24 36 57 68 70 70 69 64 60 57 56 53 48 45 46 54 62 65 65 62 62 76 92 95 93 90 86 87 88 83 82 85 83 80 82 81 77 70 57 41 35 42 51 58 56 45 36 41 45 42 40 39 36 31 26 24 26 27 28 32 35 32 30 29 27 24 22 21 25 31 33 32 36 41 42 43 44 45 44 39 34 34 34 31 31 31
52 32 25 39 59 69 70 69 67 62 59 56 54 51 44 39 46 57 62 64 62 57 68 84 89 91 91 84 79 80 82 86 92 91 85 82 83 80 72 61 46 37 44 57 60 52 42 35 36 38 38 40 44 44 41 35 31 31 31 30 30 32 32 29 27 25 23 24 24 24 31 37 35 39 50 53 51 51 50 48 42 35 34 35 34 35 34
61 49 30 25 40 60 68 69 68 65 62 59 55 54 49 40 40 50 58 61 60 56 59 71 81 88 92 89 84 83 86 87 86 87 86 83 80 79 76 71 59 42 39 51 58 54 43 35 33 35 37 42 45 44 44 44 40 36 39 39 32 30 32 30 27 25 21 24 26 24 33 44 41 44 57 57 54 58 54 47 44 38 35 36 35 34 34
63 60 45 27 25 42 60 68 68 66 65 63 58 55 55 48 41 45 54 59 59 56 53 58 73 84 86 87 87 84 85 86 84 87 89 81 73 77 80 77 68 55 45 47 56 58 47 35 30 31 35 43 46 41 41 47 46 40 42 44 36 31 32 31 30 27 22 24 26 22 31 48 50 52 59 50 43 53 56 47 44 40 36 39 38 35 33
63 63 58 41 25 27 45 61 66 66 65 64 62 58 57 54 46 41 46 53 55 54 51 53 64 73 75 80 81 74 75 83 83 85 93 89 80 81 82 77 71 66 59 55 58 62 57 47 37 33 38 44 43 39 40 44 45 42 41 41 39 36 35 32 31 31 27 25 26 24 33 51 54 53 57 50 42 49 52 47 47 44 39 41 44 44 38
64 63 63 54 36 23 29 47 61 66 65 64 64 61 57 57 54 46 42 45 49 52 51 51 58 63 65 72 75 68 69 78 76 72 79 85 85 87 87 83 79 77 75 72 70 68 68 65 56 47 45 46 43 43 42 40 44 49 44 38 38 38 35 32 30 30 26 25 33 40 50 61 59 54 56 54 47 48 49 48 51 51 45 44 52 56 48
64 64 64 61 51 32 21 30 48 61 64 64 65 64 60 58 58 55 45 40 45 52 51 50 57 62 61 67 73 67 63 68 69 65 65 72 83 89 86 83 85 87 87 84 80 75 70 70 69 62 56 55 51 46 42 38 45 55 51 44 44 44 43 46 46 41 37 42 52 58 63 68 62 52 51 49 42 41 42 40 41 41 39 43 50 56 60
65 65 65 63 60 46 27 21 31 48 61 65 63 65 63 58 58 59 51 39 40 50 53 53 62 67 65 66 70 66 61 59 58 58 59 65 79 88 85 80 83 89 88 80 76 75 72 72 76 72 66 64 57 49 46 43 44 52 55 49 46 47 48 51 51 47 47 52 55 56 59 62 58 50 47 45 40 38 37 35 34 34 36 41 42 45 58
64 65 66 65 63 56 41 24 19 31 50 61 64 66 65 61 58 59 54 43 39 46 54 58 65 71 69 67 67 67 68 65 56 52 55 61 72 82 82 76 75 81 83 74 65 65 69 73 76 75 72 70 61 52 49 45 41 50 57 51 50 56 58 55 50 48 49 49 53 59 62 59 54 48 41 36 34 33 31 31 31 31 33 37 37 36 44
59 61 64 66 65 61 52 36 20 18 31 49 61 65 65 64 61 58 57 49 40 43 53 59 66 75 78 77 75 68 64 64 61 55 53 55 63 72 72 68 68 73 74 68 64 68 77 80 78 74 72 72 68 62 56 49 47 52 54 52 56 64 64 57 50 49 49 48 56 72 75 68 63 59 53 54 54 43 32 29 30 30 30 32 34 37 38
50 55 59 63 65 65 59 47 29 16 18 33 50 60 65 68 63 59 61 55 43 42 51 56 59 65 68 72 76 71 62 61 63 60 55 54 58 63 65 65 68 70 70 72 76 81 83 81 76 74 73 70 69 68 63 58 59 57 52 53 60 61 58 56 51 48 49 50 59 73 78 76 75 70 67 72 70 53 37 32 31 31 33 34 38 41 41
39 49 54 57 63 66 64 55 40 22 13 20 37 51 61 67 66 63 63 59 48 44 53 55 47 42 44 51 61 67 64 59 56 58 62 66 65 61 60 64 70 73 75 80 84 85 82 75 71 72 72 67 64 67 69 68 67 62 59 62 62 57 58 59 55 52 54 56 62 70 73 75 75 70 63 61 57 51 44 38 35 35 35 37 42 44 44
32 44 51 54 59 65 66 62 50 31 14 13 25 41 54 63 68 66 63 63 55 46 48 50 38 34 47 59 62 66 64 55 52 55 62 71 73 60 49 57 69 74 78 82 82 81 80 77 74 73 72 66 64 69 74 74 67 61 63 67 63 60 65 66 61 62 67 67 67 68 69 70 70 69 67 61 54 52 53 51 50 46 39 38 41 43 49
27 38 48 53 57 63 67 66 58 40 20 10 17 33 47 56 63 66 65 66 63 52 48 47 39 39 54 60 57 60 61 53 50 52 56 67 74 61 48 53 64 69 75 80 81 80 78 75 74 75 73 69 67 68 72 73 69 63 64 66 66 70 74 70 63 66 70 69 65 64 63 62 61 63 70 71 65 59 59 60 59 50 41 41 42 40 48
25 33 44 52 59 64 67 68 64 50 28 11 11 27 42 49 56 64 67 66 65 59 51 46 40 39 45 45 45 57 63 53 47 50 57 65 68 62 60 66 69 68 71 75 78 79 77 73 71 72 69 63 60 64 70 73 71 69 68 69 75 82 81 71 61 60 62 62 60 59 59 59 61 64 67 69 69 65 61 58 55 50 48 49 49 45 48
26 34 43 52 61 68 69 68 68 58 35 14 9 21 38 45 50 61 69 68 66 62 56 48 41 36 36 41 51 60 60 51 47 53 58 59 58 61 66 69 70 70 73 77 79 76 71 70 73 78 79 70 59 62 71 72 69 71 73 73 79 87 83 69 55 52 57 60 59 60 61 59 63 67 64 60 62 64 62 59 57 55 54 53 54 55 54
27 36 47 56 65 71 71 69 71 63 41 18 8 16 34 43 48 60 73 73 68 65 59 51 43 36 35 46 60 63 55 48 50 55 55 52 56 63 65 64 68 69 64 64 70 72 70 71 73 76 82 79 67 64 70 70 67 72 75 73 78 87 84 69 55 51 54 57 60 69 77 74 69 71 69 61 59 61 61 58 56 55 55 54 54 54 51
24 33 47 60 67 73 74 73 73 66 45 21 8 12 28 38 43 55 69 74 71 67 62 53 46 40 37 44 56 61 57 52 54 58 56 54 56 57 56 61 68 64 50 46 59 71 75 74 73 71 73 75 72 69 71 69 66 69 73 76 82 83 72 56 50 50 51 52 56 67 78 79 72 71 72 67 63 65 64 60 57 55 54 56 56 53 52
22 27 43 60 70 75 76 76 74 67 46 21 7 11 24 35 42 48 58 66 69 68 64 58 48 39 35 39 49 57 58 54 53 54 53 52 50 48 52 61 64 59 51 50 59 69 71 71 73 73 70 71 72 68 65 65 62 61 67 77 84 74 52 40 48 54 48 45 50 55 59 63 63 63 66 66 65 65 65 62 61 60 59 59 60 62 65
22 25 40 59 70 74 78 80 76 61 37 15 5 9 19 31 40 45 51 60 65 65 64 61 51 43 43 47 51 56 58 54 51 51 50 47 44 44 49 55 56 53 52 51 51 56 61 63 67 69 65 67 69 63 55 56 58 61 69 80 84 77 61 57 68 68 48 36 44 48 45 45 44 41 46 53 57 62 67 65 62 63 64 64 66 72 78
23 28 42 57 68 77 83 81 67 45 23 12 14 24 32 36 39 41 47 56 62 62 63 66 65 62 60 57 51 51 53 51 50 51 48 42 40 41 42 42 45 51 54 49 43 47 55 59 61 61 57 54 55 53 51 53 59 69 76 80 84 86 77 67 65 61 43 33 39 45 44 43 38 32 31 34 37 46 57 61 60 60 60 60 63 69 74
28 40 52 61 72 83 82 73 62 51 36 22 21 30 40 43 41 39 43 51 59 62 61 62 62 62 64 65 62 56 50 47 47 50 48 41 37 38 37 35 37 41 42 38 35 42 50 51 49 49 48 45 44 47 49 52 57 63 67 74 81 83 76 63 51 38 29 30 35 36 34 33 31 30 33 36 37 37 41 48 56 57 51 52 64 71 68
40 61 73 76 83 89 81 70 70 71 58 39 27 26 33 40 41 40 43 46 52 60 62 58 53 51 55 62 64 57 50 49 50 49 46 40 33 31 30 30 30 29 28 30 36 42 41 36 32 33 36 37 39 41 42 44 44 38 38 52 64 66 67 68 54 33 32 50 62 59 53 51 49 46 48 55 58 50 37 37 51 55 46 45 58 66 57
60 80 87 86 90 92 81 69 68 66 53 39 29 25 33 44 42 37 42 49 49 53 58 55 48 45 49 55 57 55 54 55 53 48 43 37 32 31 31 30 29 27 22 27 38 41 33 29 31 32 29 30 34 38 39 37 28 15 15 32 47 56 67 74 60 39 36 46 54 55 55 56 57 58 59 66 71 63 46 37 41 45 42 38 39 39 35
84 91 93 93 95 92 76 58 51 47 41 40 39 38 48 62 58 46 54 69 68 57 53 51 45 40 43 52 60 63 60 56 54 54 51 44 38 36 33 29 30 29 22 24 35 38 30 28 32 31 29 33 40 45 46 37 19 8 15 31 43 54 66 70 65 56 41 28 34 48 46 33 31 42 53 61 65 66 63 54 39 31 34 35 30 29 29
95 96 99 97 96 92 75 51 37 32 31 45 66 71 66 68 70 64 66 78 80 67 54 51 51 49 46 51 62 67 63 59 60 61 59 52 44 38 33 30 32 29 23 25 32 31 26 26 28 27 30 38 42 41 40 30 12 6 20 36 45 54 65 69 70 65 46 30 44 66 59 36 30 37 42 43 40 39 44 42 28 20 25 28 25 25 27
95 97 101 98 96 98 85 58 39 30 26 43 79 95 80 66 72 75 67 64 70 71 61 53 56 60 60 61 64 65 62 62 62 60 55 51 45 38 33 33 33 29 25 27 29 26 22 24 26 25 29 36 35 30 24 16 5 5 17 28 32 38 49 58 62 58 42 29 38 53 50 39 34 32 33 37 37 28 22 20 17 17 21 22 21 23 23
92 94 98 97 98 99 84 58 41 36 37 52 81 98 89 74 72 73 65 57 58 65 66 61 59 63 67 67 66 64 61 59 58 55 49 43 40 38 36 35 33 30 29 28 26 23 23 25 25 26 32 37 33 23 13 7 4 4 9 14 17 24 39 55 63 61 48 31 26 31 32 30 31 34 34 33 30 23 17 15 15 16 17 17 19 21 21
92 95 97 97 97 92 79 66 54 45 48 65 83 89 86 78 68 63 63 61 55 56 63 67 66 67 69 68 65 65 63 56 50 50 48 41 36 36 35 31 28 29 30 27 22 21 24 25 23 25 35 42 34 17 7 6 8 6 4 6 8 13 26 42 54 59 56 42 30 27 25 28 43 57 49 29 19 20 18 15 14 15 16 17 19 21 23
93 99 97 98 99 91 78 76 74 61 51 61 77 81 78 75 66 58 57 59 55 52 59 68 70 69 68 66 63 62 61 53 46 44 44 39 36 35 32 28 27 28 28 25 21 20 23 22 18 23 38 47 37 16 5 7 9 6 6 7 5 4 9 16 24 35 44 41 35 34 34 37 50 58 43 22 18 22 20 16 17 18 18 19 21 22 25
97 102 99 97 100 94 81 79 88 83 65 59 68 76 74 68 62 56 53 53 55 56 61 67 70 67 65 62 59 55 53 50 46 44 42 39 37 35 31 28 30 30 26 23 23 22 20 19 21 30 44 49 36 16 5 5 7 5 6 8 6 5 7 6 5 12 19 19 19 27 36 39 42 42 33 25 24 23 19 18 20 19 19 24 28 28 30
99 101 100 97 98 95 84 77 83 89 82 68 63 68 69 66 63 61 56 54 58 66 70 70 69 67 65 64 60 55 50 47 44 43 42 39 36 33 31 31 33 32 26 23 24 21 17 21 33 42 45 41 32 20 11 9 9 7 6 6 6 6 7 6 4 6 8 7 9 21 31 32 31 32 30 25 23 22 21 20 20 20 23 27 29 31 33
99 98 99 98 94 88 80 71 70 81 88 83 72 69 69 66 64 65 67 65 68 75 79 76 72 70 69 67 63 59 55 50 44 41 39 37 34 33 33 35 35 31 26 24 22 18 17 26 39 44 39 34 35 35 27 17 12 11 10 9 7 5 6 7 7 6 5 4 6 15 23 24 24 28 30 27 23 22 23 22 21 22 25 27 30 34 38
101 100 100 99 93 84 76 71 68 70 78 83 82 79 78 74 70 71 75 76 74 75 77 75 71 68 66 64 63 63 59 53 47 42 39 38 37 34 34 35 34 30 27 24 19 17 21 29 38 41 36 32 41 52 44 22 11 12 13 10 9 9 6 5 6 7 6 5 5 9 15 19 20 23 28 27 25 23 24 25 25 26 27 31 35 38 40
98 97 96 98 97 87 75 71 72 73 76 83 88 85 81 80 79 77 77 77 76 75 76 74 69 66 63 60 60 60 59 55 51 44 39 40 41 37 35 35 33 29 26 22 18 20 26 30 39 48 42 29 37 57 53 25 8 12 13 9 11 14 10 6 6 7 6 6 6 7 11 18 25 28 27 25 24 24 24 25 26 27 29 34 40 42 46
93 91 91 96 97 88 75 75 86 91 88 87 89 85 79 79 82 79 75 74 75 77 75 69 64 63 64 62 58 55 53 53 52 46 42 41 41 38 37 36 32 27 25 22 19 23 27 28 39 57 57 39 38 55 52 25 10 15 16 11 13 17 13 9 9 6 4 7 9 6 6 16 28 33 29 24 23 26 27 27 30 33 36 39 44 48 51
93 92 93 96 94 85 75 77 89 94 90 87 89 87 83 85 88 86 80 77 76 75 71 65 59 57 60 61 59 56 53 52 51 48 45 41 38 36 36 36 32 28 26 24 24 28 32 32 40 53 52 41 42 52 44 23 14 17 17 14 16 18 15 13 11 6 5 7 8 5 5 8 14 20 25 26 27 28 27 26 30 37 43 46 50 54 57
Wind_Speed
17 19 18 19 22 25 28 30 32 30 27 23 20 18 16 14 13 12 12 13 15 17 18 16 15 16 18 18 14 8 2 6 9 7 5 3 8 14 13 12 12 10 16 23 21 21 24 22 18 21 22 20 24 31 28 27 28 25 24 23 18 17 20 20 21 23 23 22 26 30 23 20 27 26 20 20 24 27 23 15 14 15 13 13 10 4 6
18 17 15 17 21 24 26 28 30 31 29 25 21 18 16 15 13 11 11 12 13 15 17 19 20 18 18 15 10 8 7 10 8 4 5 6 7 10 9 11 13 13 18 21 19 21 22 18 17 20 20 20 24 29 27 27 27 25 23 20 17 18 18 19 19 16 18 19 21 29 29 24 26 27 22 21 22 23 23 18 15 14 16 17 11 3 9
16 14 13 16 20 22 25 27 27 29 30 28 23 19 16 16 15 13 13 12 12 13 15 19 21 21 19 14 11 9 6 7 5 4 6 6 6 8 10 14 13 12 16 17 17 19 17 15 17 19 19 19 23 27 27 27 27 24 20 16 18 18 17 20 20 12 13 15 16 26 32 27 25 25 24 24 21 21 24 22 18 15 16 21 15 3 13
15 14 13 15 19 20 22 25 25 26 28 28 27 22 17 16 16 17 15 11 10 12 13 17 19 19 18 15 11 9 6 4 3 3 5 6 9 10 7 6 10 15 16 14 17 18 14 14 17 19 19 19 21 25 28 27 25 23 19 14 16 18 14 17 21 18 16 16 17 24 28 26 24 23 24 27 25 21 24 23 19 15 13 18 19 7 13
14 14 14 14 16 18 20 22 24 25 26 27 27 26 22 17 15 17 17 12 12 15 16 16 16 15 15 13 9 9 7 4 3 2 2 6 10 9 4 4 11 18 15 13 17 18 15 16 18 18 18 18 20 24 27 26 23 22 20 14 13 15 12 14 18 19 19 20 20 21 24 26 26 21 20 26 27 23 21 22 21 18 13 14 17 11 13
12 14 15 14 14 16 18 20 22 24 25 25 26 28 27 21 16 15 16 14 14 16 16 15 15 15 15 12 8 9 7 3 3 2 1 6 6 3 7 11 13 15 14 14 17 17 16 17 17 18 18 19 21 23 25 24 22 22 20 14 12 12 13 12 15 17 17 19 21 20 21 24 26 22 19 22 26 25 23 22 22 22 18 13 13 13 14
10 13 15 14 13 14 16 18 20 22 24 24 26 28 28 25 20 16 14 15 15 16 16 15 14 15 15 13 10 9 7 3 4 3 1 4 6 6 9 12 12 14 13 12 14 14 14 15 17 19 19 19 21 23 25 23 22 23 20 15 13 11 11 12 16 15 10 12 17 18 19 22 23 23 21 18 21 25 26 23 20 20 20 16 12 12 12
8 11 13 13 13 14 15 16 18 20 21 23 25 27 28 27 25 21 17 16 18 19 20 18 16 17 17 15 11 8 5 3 3 2 2 3 8 10 8 5 6 12 13 10 10 11 10 12 16 17 17 20 21 24 26 23 22 24 20 16 16 12 10 13 16 12 7 10 12 13 19 24 22 22 23 20 18 21 25 26 21 19 20 18 15 13 11
8 9 11 13 13 14 14 15 16 17 19 21 23 25 26 25 25 23 21 20 21 23 23 21 19 21 19 15 13 8 4 2 1 1 2 5 6 5 5 3 6 10 14 11 10 12 12 13 14 12 15 20 21 23 26 22 23 25 19 16 17 13 8 13 15 9 7 8 7 7 14 22 22 23 26 25 21 19 21 24 22 19 19 18 18 15 11
9 7 9 12 12 13 14 15 16 16 17 19 21 23 24 24 24 24 23 22 22 22 22 22 22 22 20 17 15 12 9 6 5 4 4 8 8 2 3 6 8 7 13 12 12 15 17 16 12 12 14 18 19 22 23 21 23 26 21 17 18 13 9 14 16 11 8 9 7 5 10 12 13 18 22 23 25 22 20 21 20 20 19 18 18 16 12
9 7 8 10 12 13 14 14 15 16 17 18 20 21 23 24 25 25 24 23 23 21 20 22 23 21 20 18 14 12 11 9 7 7 6 7 6 1 2 7 8 5 9 14 15 16 17 16 13 12 14 15 17 20 20 19 22 23 21 20 19 15 10 12 16 13 11 13 11 7 7 7 8 13 15 16 21 23 22 23 22 20 20 19 17 16 14
11 9 8 9 11 12 13 14 15 16 16 17 19 20 22 23 24 25 25 24 24 23 21 23 25 22 18 17 15 13 11 9 5 5 7 8 5 2 5 7 5 3 8 15 16 14 14 13 11 9 11 15 18 19 18 18 20 21 20 20 19 17 13 13 16 14 13 17 16 8 7 7 7 13 15 14 15 18 20 23 24 23 22 22 20 19 18
13 11 10 9 10 11 12 13 14 15 15 16 18 18 20 22 23 24 23 22 22 22 23 25 24 19 16 17 16 13 9 8 7 8 8 9 8 6 5 6 1 2 9 15 15 12 10 9 7 6 10 14 16 19 19 18 20 20 19 18 17 17 15 12 14 15 14 16 15 8 5 6 7 10 14 17 19 18 15 17 22 23 23 23 23 23 21
14 13 11 10 10 10 11 12 13 14 14 15 17 18 18 20 20 21 23 21 19 19 21 24 23 19 17 17 15 12 8 7 7 8 10 11 10 8 5 2 3 7 13 16 15 13 10 8 7 8 11 11 12 17 19 18 19 19 18 17 16 17 15 10 11 15 14 15 16 10 4 5 8 9 10 16 20 19 16 15 18 20 21 22 23 23 22
15 14 12 12 11 10 10 11 12 14 14 14 16 17 17 17 18 19 21 21 19 17 18 21 22 20 17 16 16 14 11 10 7 5 8 10 9 9 7 4 5 10 16 16 12 9 8 10 10 9 11 11 11 15 19 19 18 18 17 16 15 16 16 11 8 11 13 14 14 10 6 6 11 13 12 13 13 15 16 16 17 19 20 21 23 22 22
15 15 13 13 12 11 10 10 11 13 14 14 15 16 17 15 15 16 18 19 19 17 17 18 18 19 17 14 13 12 11 12 11 8 8 9 8 8 7 6 7 11 15 14 8 5 7 10 11 10 11 13 12 11 13 16 18 17 16 16 14 15 17 14 9 9 12 13 9 7 7 7 9 12 15 14 14 14 12 12 16 18 19 22 24 23 24
15 15 14 13 13 12 11 10 11 12 13 14 15 15 16 15 13 15 16 16 16 16 17 15 14 18 18 14 12 12 10 9 10 9 8 7 6 7 8 5 7 12 14 13 9 6 7 10 11 10 10 12 13 11 10 12 16 16 15 15 16 16 16 16 14 11 11 10 8 7 5 1 3 12 15 12 12 13 11 9 11 14 17 21 24 26 26
15 15 15 14 13 13 12 11 11 11 12 14 15 15 15 15 14 14 14 14 14 14 14 12 12 16 18 15 13 13 11 11 12 11 7 4 6 7 9 5 5 9 12 14 12 8 8 10 11 10 10 11 11 12 13 12 14 16 15 13 15 18 18 16 15 14 13 12 11 10 6 3 4 11 14 11 11 12 11 9 7 11 17 20 22 24 25
16 15 16 15 14 14 13 12 12 11 12 13 14 15 14 15 14 12 11 12 13 12 12 10 11 13 12 11 11 10 11 13 14 12 10 6 5 6 6 2 6 7 10 15 13 7 6 10 11 10 11 10 9 11 13 13 13 15 16 14 13 16 16 14 14 15 14 13 13 13 8 6 8 11 12 11 10 9 9 8 6 9 16 19 20 21 21
18 16 16 16 15 14 14 14 13 12 12 12 13 14 14 14 14 11 10 10 10 9 10 10 10 10 9 9 10 10 10 11 11 12 12 9 5 4 3 4 5 5 9 12 10 6 5 7 9 8 7 8 9 9 10 13 13 13 16 17 14 15 16 14 15 15 13 13 14 11 6 7 11 11 11 11 9 7 6 6 5 6 11 16 18 17 18
19 17 16 16 16 14 14 15 14 14 14 13 13 13 14 14 14 14 13 12 10 9 8 8 8 6 7 8 9 10 10 11 10 11 10 7 6 6 4 3 3 2 5 7 7 6 5 3 2 6 5 6 9 9 8 12 12 10 14 16 14 16 16 13 13 15 14 12 10 5 4 9 12 13 13 14 13 9 5 4 4 5 6 10 12 14 16
19 19 17 16 16 16 14 15 15 15 15 14 14 13 14 14 14 15 14 13 11 9 7 7 5 5 8 11 10 9 10 10 10 9 8 5 5 8 6 0 2 1 1 3 3 4 5 1 2 4 4 4 7 8 8 10 10 9 13 15 14 14 14 10 8 11 11 7 3 5 6 9 13 14 13 13 12 10 8 6 7 7 8 8 8 12 16
19 19 19 17 16 16 16 15 15 16 16 16 15 14 14 14 14 14 15 14 11 9 8 7 6 7 12 16 14 10 9 10 10 9 6 3 3 6 7 2 2 1 1 3 2 1 4 4 2 0 1 3 6 7 6 8 8 7 11 14 14 13 14 13 7 8 9 6 3 3 3 5 9 12 10 8 9 9 10 11 11 9 8 8 8 9 14
18 19 20 19 17 16 16 15 15 16 16 17 16 15 14 14 14 14 14 13 12 10 8 6 5 6 10 12 11 10 10 10 10 9 6 4 4 4 5 2 3 1 1 3 3 1 2 3 1 3 2 2 5 5 6 7 5 5 9 12 11 10 13 13 9 7 8 5 4 5 6 7 8 10 9 8 8 9 10 11 12 12 11 12 12 11 11
19 19 20 21 19 17 17 16 16 16 17 17 17 16 15 15 15 14 13 13 13 12 10 7 4 3 7 10 8 7 9 10 11 11 8 5 4 3 3 2 2 2 2 2 3 3 2 1 2 4 4 2 2 1 5 7 5 6 9 9 9 10 11 10 8 8 8 6 4 5 5 7 8 9 9 8 9 12 13 12 12 14 14 14 14 13 12
20 19 19 21 20 18 17 17 16 16 16 17 18 17 16 16 15 14 14 14 14 13 11 9 7 5 8 10 6 5 7 10 13 15 13 9 6 3 2 2 1 0 1 1 0 1 2 1 1 3 5 5 3 3 5 7 5 6 7 6 8 12 10 7 6 8 8 9 9 6 3 4 5 6 8 9 10 13 15 14 13 14 14 13 13 13 13
21 20 20 21 21 20 18 17 17 17 16 17 18 18 17 17 16 15 14 14 14 13 11 11 10 7 7 8 4 3 4 6 10 13 13 11 9 7 3 2 3 2 2 0 2 1 0 0 2 5 6 7 5 4 5 5 6 7 7 5 8 11 9 7 8 8 6 8 8 6 6 7 7 6 9 12 13 12 12 12 14 14 13 13 13 13 13
21 20 20 20 21 21 19 17 17 17 16 17 18 18 18 17 17 17 15 13 14 13 12 13 12 8 7 7 4 3 6 7 8 10 9 8 9 9 5 2 3 4 3 1 1 1 1 3 4 6 7 6 5 4 4 5 6 7 6 6 9 11 10 9 11 9 7 7 8 7 8 10 10 11 13 13 13 13 11 10 11 13 14 13 13 14 15
22 21 20 20 21 22 20 18 17 17 16 17 18 18 18 19 19 18 16 14 14 14 14 14 11 8 8 8 5 3 4 5 8 11 9 6 8 8 6 4 4 4 4 3 1 1 2 3 5 6 6 6 5 4 3 4 6 7 8 7 6 7 6 8 11 12 10 10 11 10 10 10 11 12 13 11 10 11 10 10 10 12 13 13 14 15 16
22 21 20 20 21 21 21 19 18 17 17 16 17 17 17 19 19 17 16 16 15 14 15 15 12 9 9 8 5 2 0 1 8 14 11 8 8 6 5 5 5 5 4 2 1 2 2 3 5 7 7 6 4 2 2 3 5 6 7 6 3 1 3 8 10 11 12 13 13 12 11 10 10 11 13 13 12 11 11 11 10 10 10 11 13 16 17
22 21 20 20 21 21 21 19 18 17 17 17 17 17 17 19 18 15 15 17 16 13 14 14 13 11 9 6 5 3 2 3 10 13 9 6 5 5 4 4 5 5 4 4 4 4 3 3 3 5 6 5 4 3 4 5 6 5 5 6 4 2 4 7 6 6 8 10 11 11 10 10 10 11 12 14 15 15 15 14 13 11 10 11 13 14 15
22 21 20 20 20 21 21 20 18 18 17 17 17 18 18 19 18 14 13 15 14 13 13 13 12 11 8 4 3 4 5 8 10 9 7 5 4 4 5 4 4 7 7 7 7 6 5 5 6 6 6 6 6 5 4 6 7 7 6 6 4 3 4 6 6 5 5 6 7 7 7 8 10 10 11 12 12 14 16 17 16 16 15 14 15 16 16
23 21 20 20 20 20 21 20 19 18 18 17 17 18 20 21 20 16 15 15 14 13 13 12 11 11 9 5 4 5 7 8 7 6 6 5 3 5 7 5 5 7 7 4 4 5 5 6 5 5 6 7 6 5 6 6 7 8 7 5 4 5 6 7 7 7 7 6 5 6 8 9 9 9 11 12 12 12 14 16 17 18 18 18 18 19 19
23 22 21 20 20 20 21 20 19 19 18 17 17 19 20 20 20 19 18 18 16 14 14 13 12 11 8 6 7 9 7 6 5 6 7 7 5 6 7 5 4 5 4 2 3 5 7 7 6 6 7 7 6 7 7 6 7 9 7 4 6 10 11 9 7 8 9 8 7 7 8 9 10 10 12 13 13 12 13 14 15 15 16 17 18 18 18
23 22 21 20 20 20 20 18 18 18 17 17 18 18 18 19 20 20 20 20 18 17 16 14 12 10 6 5 7 9 9 7 6 5 6 7 8 6 5 6 7 6 5 5 4 4 6 8 7 6 6 6 7 8 6 4 6 7 5 5 8 11 10 6 5 8 9 9 9 10 10 9 10 11 12 12 12 12 13 13 13 14 13 14 15 15 15
23 22 20 19 20 19 18 17 17 17 16 16 16 14 15 18 20 21 20 20 20 20 18 15 12 10 8 7 8 8 8 8 8 7 5 6 6 4 4 5 7 8 8 7 6 5 7 11 10 7 7 8 8 8 7 5 6 5 4 5 8 9 8 7 8 11 11 9 9 11 11 10 11 12 12 13 13 13 13 13 13 13 13 13 13 14 15
22 21 19 18 18 17 16 16 15 14 15 15 13 12 14 16 18 20 20 20 21 21 20 19 16 13 12 12 13 10 7 6 6 7 7 5 5 5 4 4 5 8 9 8 6 5 7 11 11 9 9 10 7 5 8 11 11 10 9 8 9 11 11 10 10 13 13 10 9 10 11 11 11 11 11 11 12 12 13 14 14 14 14 12 10 12 16
21 19 17 17 16 15 16 16 13 11 13 15 14 14 15 14 16 19 19 20 22 22 21 22 20 16 14 14 13 10 7 7 6 7 8 6 5 6 5 5 7 7 7 7 7 8 7 9 9 8 9 10 8 8 12 15 16 15 14 13 14 15 13 10 10 11 10 6 5 6 7 7 7 8 8 8 9 12 14 15 15 15 15 13 11 13 17
18 17 16 16 15 16 17 16 13 11 13 13 14 15 14 13 15 18 18 19 21 22 22 23 21 17 16 16 12 9 8 8 6 5 5 5 6 6 5 5 7 7 6 6 8 8 8 7 7 8 9 9 9 11 14 13 13 14 12 12 14 14 11 8 9 10 10 9 9 9 8 7 7 8 7 5 6 10 13 14 16 17 17 16 15 16 17
16 16 16 16 16 16 15 13 12 13 12 11 12 13 13 13 15 16 14 14 17 19 21 22 19 16 17 16 13 12 12 11 9 8 6 5 5 5 3 3 5 6 6 7 8 8 7 6 7 8 7 6 10 13 14 13 14 14 11 10 12 12 9 8 8 8 10 12 10 9 13 14 12 11 11 9 7 7 7 10 15 18 17 16 16 15 16
15 15 15 15 16 16 15 13 13 13 12 11 11 12 13 14 14 13 13 13 15 17 19 19 17 16 16 15 14 14 14 12 12 12 9 6 5 5 4 4 4 5 6 6 7 6 5 6 8 7 5 6 10 13 15 15 15 12 8 7 9 9 7 7 6 8 11 12 8 6 11 14 12 12 14 15 14 12 11 12 15 16 15 15 16 16 16
15 14 15 15 15 16 16 14 13 13 13 13 12 12 12 13 13 14 16 16 14 13 15 17 17 16 16 14 13 13 13 13 11 9 8 7 8 7 6 5 5 6 5 5 6 5 4 6 8 8 7 11 15 15 14 13 11 8 7 6 6 6 6 6 6 9 13 14 12 12 13 13 11 10 12 13 13 13 14 14 14 14 14 14 15 15 16
16 15 15 15 15 16 16 15 14 14 15 15 14 13 12 13 14 14 16 17 15 12 12 14 16 15 15 13 12 12 13 12 10 8 9 9 7 6 6 6 7 7 6 5 5 6 6 8 9 7 7 13 16 13 9 9 8 6 6 7 5 4 5 6 6 8 9 10 12 12 12 11 10 8 8 10 11 12 12 12 12 13 14 14 15 15 15
17 17 17 16 15 16 15 13 15 17 17 16 16 16 15 14 15 15 15 15 15 14 13 14 16 16 15 13 12 12 13 12 10 10 10 10 7 5 6 8 8 7 5 5 6 7 7 9 8 5 5 10 13 11 7 6 6 5 5 5 5 3 3 4 4 5 5 6 7 8 9 8 6 5 7 9 10 10 10 11 11 11 12 12 13 13 13
18 18 17 16 15 15 13 11 14 18 20 18 17 17 16 16 16 16 14 13 13 13 13 14 14 15 14 13 12 11 10 10 10 10 10 9 8 9 9 8 6 5 5 6 7 7 8 9 8 5 3 5 9 9 6 4 4 4 3 4 4 3 3 4 4 3 3 4 4 4 6 6 5 5 7 9 8 8 9 9 9 9 10 11 11 11 11
18 18 17 16 15 14 14 13 13 15 17 18 17 17 16 16 15 14 13 13 13 13 14 15 14 13 13 13 12 10 9 10 10 10 9 8 9 10 9 7 5 5 6 7 7 8 8 8 7 8 7 5 9 9 6 4 4 4 3 3 3 3 2 3 4 4 4 4 5 4 5 6 5 6 7 7 6 7 7 7 7 7 8 8 8 8 9
16 16 16 15 14 15 18 19 17 13 12 13 15 16 15 15 15 15 15 16 15 12 11 14 15 13 12 12 12 10 10 11 10 10 10 11 10 9 9 8 7 7 7 8 8 9 9 5 5 7 8 9 10 9 6 4 4 5 4 3 4 3 3 4 5 5 5 5 4 4 5 5 5 6 7 6 5 5 5 5 6 6 6 6 6 7 8
14 14 15 15 15 16 18 19 17 14 11 11 13 15 15 16 17 16 15 16 16 12 8 9 11 10 9 10 10 10 10 12 12 11 11 11 10 9 9 8 8 8 9 9 9 9 7 5 6 9 12 11 7 6 5 4 4 4 5 5 5 4 4 4 5 5 5 5 5 5 5 6 5 5 5 5 5 4 4 4 5 5 5 5 5 6 7
14 15 16 17 18 17 16 14 15 15 13 11 12 14 15 15 16 15 12 11 13 13 10 8 10 11 10 10 11 11 11 12 12 11 11 11 10 9 8 8 8 9 10 11 10 8 6 6 8 12 13 9 5 5 4 4 4 4 5 5 5 5 5 5 5 6 6 6 5 5 5 6 6 4 3 4 5 4 4 4 5 5 5 5 5 6 6
16 17 17 18 19 17 13 12 13 14 13 11 11 12 12 11 12 14 13 11 10 10 10 11 13 13 10 9 10 12 12 12 12 12 12 11 10 9 9 10 10 10 10 9 8 8 6 5 7 9 8 6 7 6 3 3 4 3 4 5 5 5 5 5 5 6 6 6 6 5 5 5 5 4 3 4 4 4 4 4 5 5 5 5 5 5 5
18 18 17 16 16 14 14 14 13 13 13 12 12 12 11 9 10 14 15 12 9 8 9 11 13 12 9 9 10 11 11 11 12 13 12 12 11 11 11 11 11 10 9 8 8 7 5 5 5 3 1 2 6 7 3 2 2 2 2 2 3 4 5 5 5 5 6 6 5 4 4 3 3 3 4 4 4 4 4 4 4 5 5 5 5 5 5
19 18 16 14 13 15 18 17 15 13 12 12 12 11 10 10 11 12 12 11 10 9 9 10 11 11 11 11 10 9 8 9 12 13 13 12 11 11 11 11 10 9 8 8 9 8 6 8 11 11 7 6 6 7 3 2 2 1 1 2 1 2 3 3 3 4 5 5 5 5 4 4 3 3 3 3 3 3 4 4 4 4 5 5 5 5 5
Wind_Direction
357 357 3 5 2 5 9 10 11 15 15 10 8 8 11 9 353 346 353 354 350 345 348 353 345 337 341 341 340 346 9 116 111 119 142 148 162 165 173 187 190 186 177 174 173 169 168 173 174 169 172 178 179 182 184 183 184 184 185 192 193 178 172 174 180 185 187 190 195 200 202 198 200 209 213 205 204 208 212 216 207 204 213 217 217 207 143
357 1 6 5 4 7 10 12 14 16 16 13 9 7 14 18 5 351 356 2 358 349 348 355 358 4 9 13 35 63 99 116 95 90 128 134 161 172 177 170 161 162 172 175 172 167 167 172 172 169 169 174 178 180 182 183 181 181 186 188 180 178 182 178 172 178 187 188 190 196 201 203 202 206 209 213 213 203 204 216 214 211 219 216 214 198 148
3 10 10 7 7 8 10 13 15 17 17 15 10 8 12 17 12 2 357 355 358 359 353 354 1 11 21 41 72 79 100 119 83 80 116 126 161 167 152 149 153 168 173 170 169 165 164 173 173 162 159 167 174 177 180 181 179 181 187 184 179 183 188 185 183 181 185 188 184 187 193 197 203 205 202 210 218 200 197 213 218 215 220 223 228 177 135
3 11 10 9 8 6 8 12 14 17 18 16 15 15 14 11 5 2 360 349 349 -0 359 357 3 12 24 42 68 77 95 128 113 111 116 134 166 167 146 149 171 170 164 165 170 166 158 165 164 150 153 167 171 173 178 180 181 184 184 179 183 188 193 196 197 192 188 189 181 182 190 193 201 207 199 205 221 214 200 207 220 222 216 221 232 206 140
360 3 4 6 6 4 6 12 14 16 18 15 15 21 23 16 5 0 2 357 349 353 356 1 11 23 33 43 66 83 88 111 127 141 134 140 163 171 131 136 166 160 153 162 169 162 152 158 160 152 155 163 164 170 177 181 187 186 179 178 185 195 217 227 212 195 187 190 184 180 190 197 200 205 199 201 216 224 211 202 208 220 222 218 219 195 154
356 357 356 358 3 2 3 10 13 15 19 15 14 22 26 24 18 8 6 5 358 358 3 12 20 26 35 46 72 85 79 93 132 156 162 134 157 176 113 126 155 158 150 157 165 160 152 157 159 155 156 156 157 169 180 188 195 188 180 186 186 197 229 231 205 193 187 192 190 180 187 198 201 203 204 202 208 217 221 212 204 211 227 233 212 185 165
348 351 350 351 358 358 357 7 13 14 17 16 15 21 25 26 28 25 18 15 12 8 5 5 9 16 32 52 70 76 67 80 142 154 105 125 154 163 132 131 154 162 155 153 159 158 157 165 162 154 158 162 160 171 179 182 186 184 184 191 191 208 234 207 191 200 194 181 186 186 193 200 201 202 203 203 205 209 217 222 217 212 224 238 229 207 197
331 345 349 350 355 355 352 359 9 13 15 17 17 19 20 21 22 24 28 27 21 16 8 2 5 11 23 45 61 74 74 78 138 143 29 119 154 164 157 139 151 163 165 158 151 149 153 168 164 153 162 171 168 174 179 173 174 181 184 189 198 224 237 190 185 204 195 177 196 209 201 196 198 201 201 203 206 205 209 219 223 220 221 228 228 225 225
317 333 349 351 350 351 350 352 1 8 12 15 19 19 18 18 15 16 24 28 26 22 14 11 16 14 14 32 54 70 78 60 72 54 78 139 156 183 188 129 105 155 175 171 153 143 137 148 161 162 169 174 172 176 180 173 173 180 181 184 199 219 218 186 185 191 184 190 225 226 191 190 199 203 201 205 209 208 208 213 216 216 217 222 223 223 224
315 318 342 349 345 345 348 349 353 -0 6 12 17 16 15 18 18 16 19 24 25 21 12 11 18 18 16 27 44 58 67 76 86 72 107 149 148 163 179 119 93 143 179 174 156 145 136 135 150 163 167 171 173 176 180 177 176 181 181 183 197 209 201 186 186 185 180 192 217 205 171 182 206 206 203 207 209 209 210 213 215 213 213 218 220 216 212
318 310 327 344 343 340 345 347 347 353 359 5 12 13 11 14 17 16 16 21 26 24 15 14 18 18 18 23 30 41 51 64 88 93 104 142 153 191 164 117 95 121 174 172 161 151 143 134 135 153 166 170 173 175 179 180 180 182 184 186 199 212 206 187 189 192 182 176 186 199 186 189 213 212 213 215 210 209 210 212 215 215 214 219 217 211 211
318 308 309 331 338 336 341 343 344 350 355 359 5 9 8 9 13 14 13 16 24 24 18 16 15 12 15 21 23 26 33 40 54 78 98 119 130 155 161 144 108 94 160 170 162 147 142 136 125 137 161 167 170 173 176 179 181 184 188 189 196 205 201 186 188 199 193 174 173 191 206 204 206 208 217 224 217 216 219 218 219 217 215 218 218 216 219
315 309 303 314 328 332 336 338 342 347 350 355 -0 2 4 6 10 12 10 13 20 21 20 18 15 12 14 19 23 22 21 23 18 25 55 80 78 81 133 172 196 112 154 167 159 138 136 140 121 119 145 159 172 175 174 180 184 184 188 191 192 196 198 190 185 196 202 186 180 193 208 205 216 215 213 216 215 215 222 224 222 219 216 217 217 219 222
313 309 303 303 313 325 329 332 339 343 345 351 354 356 359 2 6 9 8 11 17 21 22 16 11 14 16 12 14 18 10 5 9 20 36 45 46 47 66 159 194 162 161 160 148 136 142 150 133 129 146 162 180 177 170 175 183 184 185 186 187 191 199 205 193 192 201 198 190 188 172 186 219 226 209 207 212 217 222 225 224 221 218 218 218 217 219
316 309 303 298 301 313 321 326 332 336 342 347 349 352 355 356 1 7 6 7 10 19 27 15 4 8 11 6 9 12 9 13 21 33 42 37 28 27 45 94 157 164 159 154 147 147 160 157 141 139 154 165 170 167 165 169 177 184 185 182 184 191 198 211 209 194 204 211 199 186 181 207 228 228 212 197 198 207 216 226 229 222 217 220 222 219 217
319 311 304 296 294 300 309 319 324 328 335 341 345 351 352 350 356 2 4 5 3 10 23 15 1 3 6 7 12 11 15 27 29 36 54 48 25 14 39 95 140 161 158 154 161 178 176 166 158 155 162 164 161 162 167 168 169 179 187 182 181 190 199 213 223 208 211 223 222 210 211 226 225 208 197 195 195 193 197 220 235 228 220 221 221 216 215
320 314 307 298 292 291 295 306 316 320 327 332 339 348 350 351 355 357 359 2 1 8 16 10 6 12 9 7 14 17 19 15 359 2 30 47 42 20 15 56 131 166 167 159 167 188 186 177 173 169 164 161 161 165 172 171 169 176 188 189 184 184 195 212 223 220 211 214 231 231 207 183 168 166 168 184 196 188 184 207 232 226 218 219 219 217 217
323 316 309 301 293 287 286 292 303 312 319 324 331 340 347 353 354 350 350 354 359 11 13 5 13 13 1 356 6 10 5 353 347 357 11 40 76 39 2 13 129 166 173 168 171 185 190 185 186 180 163 157 163 168 173 179 181 182 187 194 191 185 190 205 215 218 213 208 222 231 207 129 142 161 164 173 174 174 188 205 216 214 211 211 215 219 220
327 317 311 306 297 287 282 282 287 299 310 316 323 330 339 350 349 341 341 346 351 2 5 11 26 17 355 354 8 8 2 356 356 7 12 17 53 32 359 53 126 146 169 176 181 191 197 199 203 189 162 161 174 174 174 180 184 184 185 190 192 188 191 204 213 216 217 210 217 234 227 180 164 163 168 176 170 172 198 207 205 211 206 202 205 212 216
332 320 311 308 302 291 282 277 276 283 294 305 314 319 327 341 345 341 342 342 343 356 7 20 37 31 15 18 22 22 22 9 358 0 3 1 9 27 64 127 137 148 173 186 196 214 227 224 221 205 169 166 180 178 176 179 179 183 187 190 193 191 190 200 207 211 216 210 212 230 229 182 179 178 178 188 192 193 200 203 213 216 199 195 200 204 207
335 326 314 308 306 298 285 276 273 273 279 289 301 309 315 328 339 344 345 338 333 342 359 14 27 27 22 20 16 17 20 11 359 359 1 355 352 14 51 159 187 167 190 202 202 218 251 291 221 202 176 163 182 187 179 175 177 187 191 190 192 191 192 202 205 205 215 217 205 196 151 153 169 179 184 195 205 207 203 209 239 244 219 204 200 198 203
337 331 319 309 305 303 292 279 272 269 270 277 287 296 304 313 326 337 339 331 323 324 336 353 9 20 15 4 358 8 21 11 354 350 1 7 351 358 10 196 194 46 285 228 193 213 243 278 124 198 200 168 183 190 182 183 192 197 193 192 190 188 199 219 208 193 209 225 171 142 151 162 175 189 198 204 208 215 227 241 250 256 256 242 215 198 198
336 334 326 314 304 302 300 286 273 268 266 270 276 283 292 300 311 324 331 327 319 312 314 323 340 13 13 359 347 352 10 11 359 350 356 6 337 348 5 0 212 206 231 221 214 216 209 180 139 222 256 182 186 195 201 208 207 193 193 200 198 196 213 230 222 197 215 244 254 211 201 183 182 188 194 197 201 212 227 240 246 248 252 259 257 228 207
329 331 330 321 307 300 300 293 280 269 264 265 269 273 280 290 299 310 322 324 320 315 311 312 336 15 9 347 335 335 337 341 352 357 351 341 330 347 6 343 268 300 80 197 223 233 186 186 80 23 9 204 194 200 214 214 195 164 182 198 197 200 218 228 229 223 223 232 239 233 239 238 216 201 198 199 206 218 228 238 246 243 241 251 262 260 236
321 323 326 324 315 302 297 296 287 273 263 263 264 266 271 280 288 299 312 318 320 317 306 290 284 327 334 326 324 322 313 317 336 350 352 344 332 338 359 349 313 345 44 160 196 195 199 262 317 341 320 260 190 213 236 229 204 159 169 189 200 203 205 209 217 224 225 232 236 220 225 240 235 228 227 225 232 240 241 245 252 247 241 244 248 251 248
316 317 318 320 318 308 297 294 291 279 266 261 260 260 264 270 277 289 301 310 315 315 305 288 275 283 312 318 311 289 297 313 325 331 340 347 340 327 321 313 316 301 164 147 287 214 205 224 256 291 289 270 251 257 252 248 236 197 185 211 228 214 200 198 218 224 225 235 238 226 219 238 233 225 226 227 239 250 248 249 256 253 246 244 242 239 239
312 313 312 313 316 312 300 292 290 285 271 260 258 256 258 262 269 277 287 299 309 311 305 298 294 295 306 313 316 311 311 311 304 305 316 330 330 322 303 272 279 260 209 180 6 6 94 351 273 267 273 269 254 241 248 269 260 223 207 239 249 230 216 218 229 233 234 235 230 213 209 225 235 249 250 241 240 247 248 248 254 255 251 247 244 239 235
307 309 310 309 310 311 304 292 288 287 276 262 257 255 255 257 260 265 273 285 295 299 300 299 299 302 305 310 325 322 302 298 293 288 291 301 305 309 313 282 260 258 238 201 61 58 47 357 310 281 271 269 266 251 247 263 258 231 230 257 247 225 218 225 231 234 238 237 233 226 226 231 240 257 265 253 235 232 235 237 243 248 250 249 246 241 237
305 305 308 307 306 307 305 294 286 286 281 266 255 253 255 255 253 257 264 271 279 288 295 299 299 292 287 297 315 303 284 300 302 293 287 280 284 300 323 320 286 276 257 227 188 29 349 324 312 302 284 268 270 271 243 241 250 246 252 262 240 207 218 244 242 240 246 249 246 247 253 255 251 252 255 245 225 222 226 224 231 244 250 250 247 242 239
304 302 304 305 304 303 302 296 286 284 283 270 255 249 253 254 251 250 255 260 268 278 287 296 302 290 275 282 296 288 155 318 284 276 274 273 276 291 319 319 311 315 306 286 309 325 302 308 316 307 291 268 252 259 259 263 272 262 250 256 264 245 258 258 247 245 255 260 256 255 261 261 254 252 250 239 227 226 230 229 235 246 248 244 243 242 242
303 300 300 301 301 300 300 296 287 283 281 272 255 243 245 252 251 246 249 256 262 271 280 289 299 295 283 286 299 304 349 314 282 275 276 283 283 288 303 304 308 313 301 280 278 277 276 294 298 285 285 278 248 240 273 289 296 300 282 270 276 276 255 257 255 254 259 260 260 266 270 264 254 253 253 245 234 233 238 238 236 237 237 237 237 238 240
300 297 297 297 297 298 298 293 286 282 279 271 255 240 237 244 246 242 244 250 254 263 273 281 292 298 296 298 300 285 273 274 275 279 294 312 309 291 283 271 271 276 266 248 246 249 258 270 258 241 257 269 249 238 271 287 287 297 296 276 257 242 255 269 283 289 282 272 264 255 247 247 249 250 254 254 245 238 241 244 243 242 242 241 241 240 241
297 294 293 292 293 296 296 292 286 281 277 269 256 242 236 239 241 239 239 242 247 258 268 274 286 293 285 275 284 277 259 262 273 279 283 295 311 301 292 279 264 278 287 282 254 244 248 263 260 247 262 272 258 246 261 269 277 296 304 284 252 257 273 284 292 294 291 288 274 244 231 241 257 260 257 259 255 244 242 244 245 247 246 245 247 249 247
295 291 289 289 290 292 293 290 284 281 279 269 255 242 236 237 239 237 236 239 242 251 260 267 278 284 282 290 300 288 269 269 285 280 269 272 287 292 288 281 277 281 287 285 265 261 267 270 259 252 269 280 272 261 260 260 277 297 307 287 264 273 283 292 294 287 281 277 275 265 253 256 266 267 260 258 257 253 250 248 246 247 248 247 249 250 248
294 290 286 285 287 289 291 289 284 281 277 266 253 243 237 236 236 236 236 236 238 243 250 258 266 273 288 315 302 282 276 280 279 268 266 275 283 278 258 259 274 278 270 274 282 275 268 264 254 252 264 267 273 288 294 273 263 271 262 245 263 277 285 287 272 270 276 277 272 270 270 269 271 271 268 266 260 253 249 250 249 247 246 246 247 246 247
292 289 284 282 283 286 288 285 280 275 269 262 253 244 236 233 234 235 234 233 234 236 241 246 247 245 255 279 285 282 288 285 262 244 249 267 272 262 239 249 260 255 256 275 286 263 249 254 258 265 262 248 258 293 297 251 234 240 234 243 260 265 261 254 250 259 274 283 277 274 275 274 274 275 276 275 269 259 252 251 252 250 246 246 249 250 248
291 288 283 279 281 285 283 278 274 270 266 261 252 240 235 232 231 233 233 232 234 234 234 238 239 226 225 252 267 267 273 283 260 242 251 264 260 248 245 255 259 255 262 273 264 233 246 261 263 263 252 238 239 273 265 243 239 244 248 254 259 257 255 255 254 260 272 281 281 277 276 275 276 280 283 283 279 270 261 254 251 252 251 245 245 252 252
289 286 282 280 278 275 272 272 271 266 263 259 248 239 237 232 229 231 231 230 232 233 230 235 238 229 223 239 250 243 248 272 269 248 249 254 248 242 250 261 265 268 273 265 235 222 250 277 278 266 252 242 241 258 260 256 258 261 260 257 256 255 257 260 256 255 261 268 267 267 270 273 274 276 284 288 278 267 262 257 250 251 251 241 231 242 254
287 284 282 278 272 268 271 274 271 263 259 255 245 239 238 234 230 232 233 232 234 235 232 233 234 229 227 235 244 246 249 252 247 244 249 240 234 245 260 261 261 269 277 265 247 246 263 277 275 268 262 248 238 247 258 270 285 290 280 262 251 248 246 247 247 245 241 239 241 249 253 255 252 251 259 274 268 261 263 261 253 249 250 246 243 250 259
289 286 282 277 271 272 275 271 260 253 251 249 243 238 235 232 229 228 229 234 237 235 232 232 232 229 228 231 238 249 249 238 231 241 250 235 233 253 266 247 252 270 275 262 254 261 271 266 260 266 263 219 210 230 253 280 299 304 293 262 247 242 235 231 236 244 246 247 253 266 267 265 257 243 238 243 252 257 261 260 255 253 253 256 259 264 267
291 288 282 276 272 272 269 258 246 243 239 235 236 234 227 225 225 220 218 227 238 239 234 230 230 232 232 229 229 236 241 240 236 235 234 234 245 253 251 253 267 276 272 261 257 261 267 262 262 267 258 222 230 250 269 284 294 302 296 264 245 238 228 216 219 241 250 246 238 250 263 263 256 241 237 242 252 258 260 260 261 261 261 262 265 267 268
292 289 283 277 272 269 264 251 238 234 230 226 228 232 227 222 221 218 214 218 228 239 238 232 227 226 226 225 224 228 237 245 241 223 215 231 247 246 244 259 269 261 258 263 264 256 243 247 257 259 251 253 266 279 284 283 289 306 315 294 264 244 227 210 217 244 254 247 234 236 249 256 253 245 241 244 254 260 261 262 264 264 263 263 264 265 267
293 297 293 285 275 268 261 247 231 227 225 220 218 223 223 219 217 217 219 220 219 220 229 232 227 221 220 218 213 214 225 232 223 204 210 230 244 247 247 248 246 246 253 263 262 252 241 240 246 246 244 258 273 287 291 286 294 312 323 323 314 268 232 217 220 241 255 251 240 241 249 256 259 258 253 252 258 263 264 264 264 264 263 264 264 265 266
291 296 296 291 278 266 257 242 228 223 220 217 217 218 218 217 215 215 220 225 221 217 223 224 214 209 214 214 204 208 222 222 203 195 210 224 229 232 238 236 234 238 252 257 251 246 239 237 241 248 260 273 282 291 291 291 302 313 318 329 338 317 261 248 243 246 257 263 259 255 257 261 265 265 260 261 265 269 271 271 269 267 267 268 266 265 267
288 293 295 292 278 259 242 228 225 225 221 218 220 221 222 224 223 218 219 226 226 223 227 222 206 201 212 215 202 200 212 215 209 209 214 218 221 227 231 236 240 245 253 256 250 243 241 243 242 229 227 270 285 288 284 286 302 310 315 323 330 324 301 293 293 293 292 295 297 283 268 263 259 256 261 268 273 273 273 275 274 270 268 267 267 267 269
286 291 292 285 270 249 228 213 215 225 227 224 224 226 227 228 229 228 230 233 229 225 228 224 207 196 204 209 203 194 191 198 212 222 216 210 218 225 227 237 253 256 257 259 251 239 240 240 215 186 189 241 282 291 288 282 285 292 300 310 314 321 321 308 307 311 307 306 311 305 287 279 277 273 273 275 275 273 276 278 275 271 270 269 270 273 275
288 290 286 276 261 243 229 217 211 216 231 236 234 235 236 236 237 240 237 228 219 220 229 223 209 199 200 201 197 194 194 200 210 217 210 208 217 224 228 240 250 248 248 252 245 239 241 232 183 193 229 263 282 287 286 283 282 287 294 299 300 311 326 324 318 314 306 301 303 302 297 294 287 280 279 280 276 275 282 283 277 277 277 275 275 280 283
290 289 280 267 252 240 233 226 218 216 227 239 242 243 244 243 243 246 243 230 219 217 220 212 203 204 210 208 198 193 196 204 211 212 209 210 217 222 226 237 245 242 238 236 231 229 230 213 206 235 261 277 279 268 266 278 290 291 292 293 293 296 308 321 326 325 317 311 306 301 302 302 290 273 271 279 279 279 285 286 285 285 280 277 285 295 294
292 289 279 266 256 246 235 226 221 220 226 242 254 252 247 242 237 235 234 230 223 221 220 213 208 208 209 211 212 208 203 203 208 209 207 211 219 222 219 228 241 243 237 233 231 228 224 227 249 267 275 273 246 228 247 274 291 296 295 293 292 290 290 301 317 324 325 324 319 308 304 306 302 284 266 267 270 276 284 287 287 286 280 278 287 295 294
292 290 283 273 264 249 226 211 218 226 232 242 250 247 244 246 241 233 225 218 214 217 222 222 215 206 197 200 214 219 214 209 209 209 207 212 221 224 223 231 241 241 234 230 231 224 218 241 279 293 288 246 206 200 227 276 293 301 297 287 283 281 280 285 297 307 316 323 322 311 304 310 312 306 287 268 260 261 275 287 289 288 285 284 289 293 293
292 292 291 282 264 234 205 202 218 229 231 233 232 227 226 235 242 238 232 223 211 210 221 221 214 206 200 201 208 212 212 210 212 215 217 218 219 220 226 234 240 239 233 229 223 214 212 223 233 244 276 215 198 193 208 271 299 320 320 298 285 281 280 283 291 299 306 318 323 315 300 291 284 277 277 274 263 254 261 273 275 273 275 281 289 292 289
291 293 293 283 250 212 198 203 214 218 224 233 231 218 211 218 226 230 229 222 213 213 218 216 209 208 212 211 209 211 213 209 210 218 226 225 221 223 230 235 238 242 241 227 212 208 220 227 222 223 236 238 209 193 198 276 304 348 23 21 8 318 288 287 294 298 302 314 325 321 306 285 265 257 268 277 268 255 254 257 252 253 266 278 285 288 290